TimeCST,TemperatureF,Dew PointF,Humidity,Sea Level PressureIn,VisibilityMPH,Wind Direction,Wind SpeedMPH,Gust SpeedMPH,PrecipitationIn,Events,Conditions,WindDirDegrees,DateUTC
12:53 AM,41.0,10.9,29,30.10,10.0,South,15.0,24.2,N/A,,Clear,180,2012-12-13 06:53:00
1:53 AM,39.9,12.0,32,30.09,10.0,South,17.3,-,N/A,,Clear,180,2012-12-13 07:53:00
2:53 AM,39.9,12.9,33,30.08,10.0,South,17.3,24.2,N/A,,Clear,180,2012-12-13 08:53:00
3:53 AM,39.9,14.0,35,30.08,10.0,South,17.3,27.6,N/A,,Clear,180,2012-12-13 09:53:00
4:53 AM,39.0,14.0,36,30.06,10.0,South,18.4,25.3,N/A,,Clear,180,2012-12-13 10:53:00
5:53 AM,39.0,15.1,38,30.07,10.0,South,17.3,25.3,N/A,,Clear,190,2012-12-13 11:53:00
6:53 AM,37.9,15.1,39,30.10,10.0,SSW,15.0,-,N/A,,Clear,200,2012-12-13 12:53:00
7:53 AM,37.0,16.0,42,30.11,10.0,South,11.5,-,N/A,,Clear,190,2012-12-13 13:53:00
8:53 AM,39.0,16.0,39,30.12,10.0,South,16.1,23.0,N/A,,Clear,190,2012-12-13 14:53:00
9:53 AM,43.0,18.0,37,30.13,10.0,SSW,16.1,24.2,N/A,,Clear,200,2012-12-13 15:53:00
10:53 AM,48.0,19.0,32,30.13,10.0,SSW,17.3,24.2,N/A,,Clear,200,2012-12-13 16:53:00
11:53 AM,50.0,19.9,31,30.11,10.0,South,16.1,19.6,N/A,,Clear,190,2012-12-13 17:53:00
12:53 PM,53.1,21.0,29,30.09,10.0,SSW,17.3,-,N/A,,Clear,200,2012-12-13 18:53:00
1:53 PM,55.0,21.0,27,30.07,10.0,South,15.0,-,N/A,,Clear,190,2012-12-13 19:53:00
2:53 PM,57.0,21.0,25,30.06,10.0,SSW,12.7,-,N/A,,Clear,200,2012-12-13 20:53:00
3:53 PM,55.9,21.9,27,30.06,10.0,South,11.5,-,N/A,,Clear,190,2012-12-13 21:53:00
6:53 PM,39.9,21.0,47,30.08,10.0,SE,6.9,-,N/A,,Clear,140,2012-12-14 00:53:00
7:53 PM,41.0,21.9,47,30.08,10.0,SE,5.8,-,N/A,,Clear,140,2012-12-14 01:53:00
8:53 PM,39.0,23.0,53,30.09,10.0,SSE,6.9,-,N/A,,Clear,150,2012-12-14 02:53:00
9:53 PM,39.9,23.0,51,30.09,10.0,SSE,8.1,-,N/A,,Clear,160,2012-12-14 03:53:00
10:53 PM,37.9,23.0,55,30.08,10.0,SSE,5.8,-,N/A,,Clear,150,2012-12-14 04:53:00